Temp
63 64 67 69 68 68 68 68 67 70 72 74 76 70 69 66 63 63 62 61 61 61 71 76 78 78 78 79 78 81 80 82
65 66 65 67 67 66 66 65 65 67 69 69 71 70 70 67 63 62 63 61 59 59 61 62 70 73 76 77 77 77 79 79
62 63 65 65 64 65 65 66 65 65 68 68 69 69 70 70 69 66 65 61 59 58 58 58 59 61 68 70 70 70 74 80
61 62 62 64 63 63 65 65 65 64 65 67 68 69 69 67 68 67 64 63 61 58 56 57 57 58 58 59 61 64 65 72
62 62 63 64 64 65 65 65 65 65 64 64 62 63 61 63 65 66 67 64 61 60 58 56 57 57 56 57 59 59 61 60
61 61 63 65 66 65 65 65 65 65 64 63 63 61 63 64 64 63 63 64 62 60 59 57 56 55 55 55 56 56 58 59
61 62 64 65 66 64 64 64 64 64 63 62 61 59 60 60 60 61 62 62 62 59 59 58 58 59 55 55 56 54 53 54
62 62 63 63 62 63 63 63 62 62 61 61 60 60 60 59 59 59 59 59 59 56 56 56 57 58 58 58 59 59 58 54
62 63 63 63 62 62 62 62 61 61 61 59 60 60 61 61 59 60 59 58 59 58 58 58 57 57 58 58 58 61 59 59
62 63 62 63 62 61 60 61 60 60 59 60 59 59 58 58 58 59 59 58 58 57 57 57 58 58 57 57 58 58 57 58
63 63 62 63 63 61 60 59 60 59 59 59 59 59 58 58 58 56 56 57 56 56 56 56 56 57 56 55 56 57 55 57
63 63 63 63 63 62 60 60 58 58 58 58 57 57 57 58 57 56 55 56 55 55 55 55 55 54 54 54 53 54 53 54
64 63 62 62 61 60 59 59 59 58 58 57 56 57 57 56 55 55 55 54 55 54 54 54 54 53 52 51 50 51 50 51
63 62 61 61 60 59 59 59 59 58 58 57 56 55 55 54 54 54 54 53 53 53 53 52 52 51 52 51 50 50 50 50
63 62 61 61 60 59 58 58 58 58 57 56 54 53 53 53 53 52 52 52 52 52 52 52 51 52 53 50 49 48 49 50
61 61 61 60 59 58 58 58 57 57 56 55 52 53 53 53 52 51 51 51 51 51 51 51 51 51 52 46 46 47 48 49
61 61 61 59 58 58 58 56 55 56 55 53 53 53 53 52 51 51 51 51 51 51 50 50 50 52 39 39 41 45 48 49
61 61 60 60 59 58 57 57 56 55 54 53 53 52 51 50 51 51 50 49 50 50 50 50 48 49 40 40 39 46 47 49
62 62 61 61 61 59 59 58 56 55 54 54 53 52 51 48 49 47 47 49 49 49 49 50 49 50 40 39 38 46 48 47
MSLP
1024.52 1024.55 1024.32 1024.15 1024.20 1023.99 1023.50 1023.12 1022.62 1021.72 1020.94 1020.34 1019.98 1020.50 1020.48 1020.78 1020.70 1020.65 1020.45 1020.05 1019.52 1018.77 1017.51 1016.77 1016.39 1016.37 1016.29 1016.12 1016.10 1015.90 1015.84 1015.43
1024.65 1024.84 1024.85 1024.45 1024.54 1024.14 1023.90 1023.45 1023.16 1022.43 1021.73 1021.24 1020.69 1020.50 1020.69 1021.00 1021.30 1021.21 1020.95 1020.74 1020.33 1019.69 1018.97 1018.27 1017.11 1016.53 1016.13 1016.03 1015.87 1015.48 1015.21 1015.10
1024.94 1025.11 1025.18 1024.98 1024.75 1024.53 1024.29 1024.04 1023.82 1023.42 1022.76 1022.36 1021.89 1021.42 1021.22 1021.20 1021.20 1021.23 1021.23 1021.19 1021.00 1020.69 1020.04 1019.48 1018.86 1017.89 1016.64 1016.22 1015.90 1015.52 1015.05 1014.48
1025.03 1025.20 1025.23 1025.13 1025.02 1024.86 1024.71 1024.54 1024.30 1024.21 1023.73 1023.18 1022.54 1021.94 1021.60 1021.57 1021.38 1021.39 1021.61 1021.56 1021.37 1021.30 1020.97 1020.31 1019.78 1019.03 1018.30 1017.46 1016.82 1016.08 1015.22 1014.48
1025.05 1025.30 1025.43 1025.50 1025.37 1025.36 1025.11 1024.91 1024.70 1024.66 1024.56 1023.91 1023.60 1022.91 1022.62 1022.72 1022.40 1022.20 1021.69 1021.82 1021.73 1021.63 1021.42 1021.13 1020.54 1019.89 1019.45 1018.63 1017.79 1017.11 1016.43 1015.36
1025.23 1025.53 1025.64 1025.60 1025.64 1025.57 1025.43 1025.16 1024.98 1024.96 1024.89 1024.67 1024.06 1023.68 1023.38 1023.22 1023.04 1022.67 1022.30 1022.03 1021.98 1022.06 1021.68 1021.49 1021.07 1020.84 1020.31 1019.60 1018.59 1018.16 1017.40 1016.68
1025.29 1025.61 1025.56 1025.63 1025.87 1025.93 1025.74 1025.54 1025.49 1025.44 1025.13 1024.91 1024.72 1024.54 1024.11 1023.83 1023.56 1023.11 1022.77 1022.59 1022.37 1022.59 1022.11 1021.98 1021.54 1020.98 1020.73 1020.19 1019.51 1019.17 1018.67 1018.02
1024.76 1024.99 1025.19 1025.62 1025.93 1026.07 1026.00 1025.89 1025.87 1025.84 1025.71 1025.53 1025.39 1025.11 1024.87 1024.46 1024.20 1023.88 1023.64 1023.17 1022.96 1022.99 1022.84 1022.33 1022.03 1021.47 1020.99 1020.43 1019.64 1019.35 1019.06 1018.92
1024.23 1024.65 1025.04 1025.38 1025.93 1026.20 1026.27 1026.26 1026.33 1026.44 1026.43 1026.37 1026.20 1025.91 1025.43 1025.17 1024.99 1024.66 1024.29 1023.93 1023.64 1023.54 1023.00 1022.62 1022.28 1021.90 1021.45 1020.84 1020.19 1019.80 1019.47 1019.01
1023.86 1024.42 1024.87 1025.31 1025.73 1026.29 1026.59 1026.57 1026.71 1026.84 1026.85 1026.73 1026.57 1026.33 1026.04 1025.75 1025.47 1025.13 1024.73 1024.47 1024.17 1023.98 1023.50 1022.97 1022.51 1022.15 1021.97 1021.56 1020.83 1020.35 1020.02 1019.42
1023.56 1024.11 1024.67 1025.28 1025.92 1026.46 1026.84 1026.85 1026.78 1026.94 1026.97 1026.88 1026.71 1026.58 1026.34 1026.07 1025.82 1025.50 1025.20 1024.93 1024.64 1024.24 1023.77 1023.41 1023.01 1022.47 1022.27 1022.04 1021.50 1020.81 1020.33 1019.67
1023.11 1023.80 1024.54 1025.22 1025.78 1026.20 1026.67 1026.82 1026.94 1027.07 1027.09 1027.05 1026.94 1026.79 1026.53 1026.25 1026.05 1025.86 1025.61 1025.26 1024.91 1024.48 1024.13 1023.75 1023.47 1022.95 1022.69 1022.40 1022.00 1021.21 1020.55 1019.91
1022.81 1023.68 1024.44 1025.10 1025.70 1026.22 1026.66 1027.04 1027.10 1027.25 1027.21 1027.15 1027.12 1027.01 1026.78 1026.54 1026.30 1026.06 1025.90 1025.48 1025.17 1024.80 1024.43 1024.14 1023.72 1023.36 1023.14 1022.78 1022.24 1021.64 1020.95 1020.28
1022.63 1023.55 1024.30 1025.01 1025.63 1026.22 1026.62 1026.98 1027.18 1027.30 1027.24 1027.18 1027.17 1027.16 1026.99 1026.85 1026.64 1026.42 1026.19 1025.89 1025.43 1025.02 1024.71 1024.35 1023.97 1023.63 1023.19 1022.94 1022.52 1021.85 1021.21 1020.59
1022.33 1023.22 1024.05 1024.82 1025.53 1026.12 1026.56 1026.95 1027.30 1027.44 1027.48 1027.39 1027.46 1027.41 1027.24 1027.03 1026.90 1026.60 1026.35 1026.12 1025.66 1025.33 1025.01 1024.63 1024.24 1023.82 1023.42 1023.40 1022.93 1022.25 1021.43 1020.64
1021.99 1022.84 1023.77 1024.61 1025.35 1025.97 1026.45 1026.84 1027.34 1027.60 1027.61 1027.49 1027.61 1027.52 1027.28 1027.20 1027.02 1026.77 1026.52 1026.30 1025.92 1025.67 1025.20 1024.81 1024.39 1023.88 1023.57 1024.18 1023.63 1022.66 1021.64 1020.60
1021.51 1022.52 1023.45 1024.28 1025.07 1025.71 1026.30 1026.75 1027.20 1027.48 1027.46 1027.53 1027.55 1027.38 1027.30 1027.26 1027.10 1026.85 1026.58 1026.33 1025.97 1025.61 1025.25 1024.83 1024.36 1023.88 1024.46 1024.54 1024.27 1022.99 1021.79 1020.77
1020.86 1021.96 1022.98 1023.88 1024.72 1025.46 1026.05 1026.55 1027.05 1027.22 1027.35 1027.52 1027.56 1027.45 1027.30 1027.36 1027.11 1026.87 1026.61 1026.33 1025.95 1025.47 1025.05 1024.67 1024.35 1023.98 1024.21 1024.24 1024.00 1023.05 1021.63 1020.53
1020.28 1021.45 1022.54 1023.56 1024.38 1025.16 1025.67 1026.20 1026.57 1026.87 1027.02 1027.20 1027.27 1027.24 1027.14 1027.35 1027.25 1027.17 1026.89 1026.30 1025.79 1025.27 1024.81 1024.41 1024.02 1023.61 1023.88 1023.82 1023.59 1022.59 1021.32 1020.56
Wind_Speed
11 13 13 14 14 14 15 14 17 14 10 8 8 7 9 9 9 10 14 12 16 11 10 11 11 9 10 10 12 12 12 12
10 11 11 13 13 15 16 16 17 13 11 10 8 8 9 8 9 13 15 14 15 13 10 12 13 9 11 12 12 14 12 11
10 11 12 13 14 14 15 16 16 14 10 10 7 8 8 8 9 11 14 14 14 13 13 11 13 10 10 9 9 9 11 12
9 11 12 12 14 14 13 14 14 14 14 9 8 8 8 9 10 10 12 14 15 14 14 12 13 10 9 9 11 10 7 10
9 9 9 10 11 12 12 13 14 13 14 11 13 10 10 9 9 9 10 14 14 15 13 14 12 9 12 11 9 8 8 6
8 7 7 8 10 10 10 12 13 14 13 12 10 11 9 9 9 11 12 12 14 16 14 12 11 9 11 13 13 12 9 6
8 6 5 8 9 9 9 10 11 13 13 14 13 13 12 11 11 10 10 10 10 15 14 13 12 12 11 11 10 12 11 10
9 7 7 6 7 8 7 9 10 12 12 13 13 12 12 12 12 10 11 10 9 13 13 13 12 14 14 14 11 12 12 9
7 5 5 6 5 7 7 8 8 9 9 10 10 11 8 8 10 9 9 9 10 13 13 12 12 13 14 14 9 11 13 10
8 6 5 4 5 6 6 6 7 8 8 7 7 8 9 9 10 10 9 10 10 12 13 13 14 14 14 15 10 11 12 11
8 7 6 4 3 5 5 5 7 7 7 7 7 8 8 8 8 10 11 11 12 12 13 13 13 13 14 14 12 12 13 11
8 7 7 6 4 4 4 4 5 6 6 6 7 7 8 8 8 9 11 11 12 12 12 12 12 13 13 13 14 14 15 15
9 8 8 7 6 5 4 3 3 4 4 6 6 6 7 7 9 10 11 11 11 11 12 12 12 12 12 13 14 14 15 16
10 10 9 8 7 6 5 3 2 3 5 6 6 6 7 8 9 10 10 10 11 11 11 12 12 13 12 13 14 15 15 15
12 11 10 9 7 7 6 4 1 2 4 5 6 6 7 8 9 9 10 10 11 11 11 11 12 13 12 14 16 16 16 15
14 12 11 10 9 8 7 5 3 1 2 4 5 6 6 7 8 9 10 10 10 11 11 11 12 11 8 14 16 16 17 17
16 14 13 12 11 9 7 6 4 2 1 3 4 5 6 7 8 9 10 10 10 11 11 11 12 10 10 13 16 16 17 16
17 16 14 12 11 9 9 7 6 4 1 1 2 4 6 7 8 9 10 10 10 11 11 11 12 13 8 13 15 16 16 15
18 15 13 13 12 11 8 8 6 5 3 2 1 4 6 5 7 9 9 9 11 11 12 12 12 11 6 11 13 17 15 16
Wind_Direction
52 43 37 43 37 31 25 22 17 10 14 8 28 44 31 25 26 19 13 5 4 351 316 272 269 258 258 254 256 262 261 264
56 45 45 39 39 35 30 27 20 11 17 14 15 14 16 32 27 18 14 13 6 3 359 354 335 280 260 258 264 255 251 249
61 55 48 44 40 34 33 31 29 20 18 12 9 12 26 20 23 21 21 18 15 6 359 357 352 344 320 274 266 262 257 262
82 64 48 41 37 32 31 33 33 30 14 17 15 19 33 20 21 21 26 21 19 17 6 3 359 357 345 346 359 333 277 268
94 81 60 49 36 32 30 34 36 36 25 26 26 27 22 18 14 19 22 24 24 17 11 5 360 354 357 343 346 331 325 335
115 93 78 61 48 41 28 31 33 31 34 28 25 26 24 22 16 15 19 21 26 17 12 6 4 359 353 352 358 357 354 335
132 121 104 73 55 43 35 33 33 27 25 27 28 28 21 22 18 14 15 17 13 16 10 6 358 5 0 353 353 4 353 351
158 149 112 76 60 51 42 36 34 27 25 26 25 23 27 28 17 20 14 13 12 10 4 4 359 352 358 351 356 1 355 353
171 145 121 92 69 53 46 49 44 33 30 30 27 24 26 25 24 15 15 12 9 2 2 359 0 356 356 355 352 352 349 348
168 166 163 111 65 68 49 53 54 40 36 36 34 28 25 20 18 12 10 10 0 2 1 358 358 358 357 349 355 354 347 344
171 177 164 150 100 111 97 69 50 44 37 29 29 24 21 16 10 10 6 2 1 358 1 357 354 358 356 351 349 353 347 347
179 181 168 160 137 109 99 63 49 45 35 25 19 15 10 11 9 4 3 357 359 358 357 354 351 353 351 350 346 348 344 343
168 166 170 172 168 153 131 96 57 32 22 15 10 4 3 6 7 2 360 356 356 354 352 347 349 352 344 349 344 344 341 338
169 168 173 175 173 167 161 155 74 15 1 359 7 4 4 3 2 357 355 351 350 351 349 347 346 344 341 347 341 338 333 331
175 176 174 174 173 174 182 168 148 6 357 0 3 357 357 357 352 352 352 348 345 346 347 341 342 337 333 348 338 333 330 326
176 178 175 177 180 183 189 175 168 340 345 353 356 348 351 351 351 350 349 342 340 340 337 335 334 328 357 348 333 325 322 321
181 179 179 181 183 188 183 182 177 215 323 353 357 1 355 357 353 347 341 335 336 328 330 327 327 325 27 351 319 320 314 313
183 183 182 183 184 185 185 180 176 196 198 33 357 0 360 356 348 347 343 333 329 328 327 326 325 317 6 315 315 318 308 311
183 181 180 181 179 182 173 177 182 192 191 191 320 345 347 352 343 339 334 325 329 327 323 323 319 320 318 304 315 310 314 318